Погода в Кобленце

Германия     50°21′15″N   7°35′50″E
темп.,
°C
ветер,
м/с
пор.,
м/с
влажн.,
%
обл.,
%
осадки,
мм/ч
давл.,
гПа
погр.,
м
17 апреля, сб
сб1723:00+2всв118075 0.0 102611
02:00+1ссв118546 0.0 102612
05:00−1с11905 0.0 102513
08:00+1с127927 0.0 1026132
11:00+8ссв35477 0.0 10251196
14:00+10ссв3550100 0.0 10231633
17:00+10ссв355199 0.0 10211557
20:00+7св2672100 0.0 1022230
18 апреля, вс
вс1823:00+5в2682100 0.0 1023281
02:00+4св1186100 0.0 102341
05:00+4ссв129078 0.0 102291
08:00+4св1188100 0.0 1023106
11:00+6ссз1277100 0.0 1023340
14:00+11ссз2258100 0.0 10211269
17:00+11ссз336198 0.3 10201262
20:00+7всв2494100 0.9 1021178
19 апреля, пн
пн1923:00+6вюв1196100 0.5 102120
02:00+6в009598 0.7 102118
05:00+6ссв1197100 0.1 102019
08:00+6ссз1196100 0.1 102075
11:00+8с238347 0.0 1019500
14:00+11ссв2368100 0.7 10181035
17:00+12ссв226998 0.7 1016921
20:00+9св118684 1.3 101610
20 апреля, вт
вт2023:00+6вюв019357 0.0 101710
02:00+4з00957 0.0 101710
05:00+3вюв00975 0.0 101610
08:00+6св00935 0.0 101678
11:00+11св127367 0.1 1015631
14:00+13в116234 0.5 1014864
17:00+15сз114958 0.2 10121661
20:00+11с117248 0.4 101213
21 апреля, ср
ср2123:00+8зюз008648 0.1 101310
02:00+7зюз118956 0.1 101210
05:00+5зюз009297 0.0 101110
08:00+8ююв018692 0.1 101081
11:00+11зюз3475100 0.7 1009888
14:00+9зсз4590100 2.7 1009778
17:00+9з2484100 0.7 1009837
20:00+7юв119063 0.9 100915